Погода в Холме

Погода в Холме : погода сейчас, прогноз погоды и архив. Всё, что Вы хотите узнать о погоде в Холме!

Поиск расширенной информации на нашем сайте:

Другие новости

Новости СМИ2

Главная страница сайта

Новости сайта

03.07.2017

Напоминаем, что на нашем специализированном сайте Метеоцентр.Азия вы можете получить высокодетализированные автоматические прогнозы погоды по пунктам России, СНГ и мира в авиационном формате (включающие направление и скорость ветра, видимость, явления погоды, количество и форму облачности, нижнюю и верхнюю границу облачности).


Погода в Холме - сегодня

Время (UTC), дата Ветер
(°,м/с) 
Видим.   Явления Облачность Т
(°С)
Тd
(°С)
f(%) Тe
(°С)
Pmin
(гПа)
dP
(гПа)
Po
(мм)
O2
(г/м3)
Тmin Tmax R s Состояние
почвы
21 13.04.18 090 (В) 20000 м    ясно 
-1.3 -2.8 90 -1  1029  0.9  765  310           
00 14.04.18 тихо ()   20000 м    ясно 
-3.5 -5.5 86 -4  1030.3  1.2  766  313           
03 14.04.18 тихо ()   20000 м    ясно 
-4.9 -5.8 93 -5  1030.6  0.2  766  315  -4.9         
06 14.04.18 150 (ЮВ) 20000 м    ясно 
+8.6 -5 38 +9  1030.1  0.1  766  300  -5.1         
09 14.04.18 140 (ЮВ) 20000 м    ясно 
+13.6 -7.1 23 +14  1029.4  -0.6  766  295           
12 14.04.18 170 (Ю) 20000 м    ясно 
+15.8 -7.8 19 +17  1027.7  -1.6  764  292           
15 14.04.18 170 (Ю) 20000 м    ясно 
+16.1 -8.5 18 +17  1025.5  -2.2  763  291           
18 14.04.18 130 (ЮВ) 20000 м    ясно 
+4.1 -0.7 71 +4  1025.3  -0.5  762  303    +16.5       
21 14.04.18 120 (ЮВ) 20000 м    ясно 
-0.7 -2.5 88 1024.9  -0.6  762  308           
00 15.04.18 тихо ()   20000 м    ясно 
-2.3 -3.2 94 -2  1024.3  -0.6  761  310           
03 15.04.18 тихо ()   20000 м    ясно 
-3.1 -3.8 95 -3  1022.7  -1.6  760  310  -3.2         
06 15.04.18 180 (Ю) 20000 м    ясно 
+10 -2 43 +10  1021.9  -0.3  760  296  -3.2         
09 15.04.18 200 (Ю) 20000 м    8/0 верхняя 
[Cc]
+15.9 -0 34 +17  1021.1  -0.7  759  289           
12 15.04.18 170 (Ю) 20000 м    9/0 средняя, верхняя 
[Ac lent|Cc]
+18.1 +3.2 37 +19  1020.3  -0.7  759  286           
15 15.04.18 180 (Ю) 20000 м    9/0 средняя 
[Ac trans]
+16.7 +4.1 43 +18  1019.4  -0.7  758  287           
21 15.04.18 тихо ()   н/о    н/о 
+3.7 +2.8 94 +4  1020  0.2  758  301           
00 16.04.18 080 (В) 20000 м    3/0 средняя 
[Ac trans]
+1.4 +0.8 96 +2  1020  0.1  758  304           
09 16.04.18 180 (Ю) 20000 м    8/3 600 м верхняя 
[Cu hum|Ci]
+19.3 +7.4 46 +20  1017.7  -1  757  284           
12 16.04.18 210 (ЮЗ) 20000 м    9/3 600 м верхняя 
[Cu med, cong|Ci]
+20.7 +5.9 38 +21  1016.5  -1.1  756  282           
15 16.04.18 030 (СВ) 20000 м    9/3 600 м кучево-дожд., средняя 
[Cb cap|Ac trans]
+20.4 +4.9 36 +20  1015.2  -1.4  755  282      0.0     
00 17.04.18 тихо ()   20000 м    10/3 600 м кучево-дожд., средняя 
[Cb cap|Ac As]
+8 +6.3 89 +8  1014.9  -0.5  755  294           
03 18.04.18 270 (З) 3{11}  20000 м    10/6 570 м кучево-дожд., средняя 
[Cb cap|Ac As]
+6.3 +3.6 83 +5  1013.3  0.3  753  296  +6    10     
03 19.04.18 300 (СЗ) 20000 м  {ливн. осадки}  10/6 630 м кучево-дожд., средняя 
[Cb cap|Ac As]
+5.4 +4.1 91 +4  1014.8  755  297  +5.2       
09 19.04.18 330 (СЗ) 20000 м    8/4 600 м верхняя 
[Sc diur, vesp|Ci fib]
+11.7 +5.5 66 +12  1015.1  0.2  755  291           
12 19.04.18 360 (С) 20000 м    8/4 600 м верхняя 
[Sc diur, vesp|Ci fib]
+15.1 +0.9 38 +15  1015.7  0.6  755  288           
Время (UTC), дата Ветер
(°,м/с) 
Видим.   Явления Облачность Т
(°С)
Тd
(°С)
f(%) Тe
(°С)
Pmin
(гПа)
dP
(гПа)
Po
(мм)
O2
(г/м3)
Тmin Tmax R s Состояние
почвы

Для получения пояснительной информации подведите курсор к названию столбца.

ПОГОДА в Холме - архив

Всё, что Вы хотите узнать о погоде в Холме - удобно и подробно!

Выберите нужную дату (начиная с 1 января 2015* года) и нажмите кнопку "Найти".
Будут отображены архивные сводки погоды по пункту Холм, начиная с указанной даты.


Отображать данные в формате CSV (для использования в таблицах Excel)


Внимание! Наш архив погоды предназначен исключительно для личного некоммерческого использования в познавательных целях. Если Вам необходимы официальные справки о состоянии погоды (для производственных, юридических, коммерческих и т.п. целей), обращайтесь в органы Росгидромета.

*Примечание: данная дата относится к архиву по метеостанциям СССР (Россия, СНГ, Балтия).
Архив по метеостанциям Зарубежной Европы и Азии (кроме Китая) хранится 10 дней, по другим регионам земного шара (Китай, Африка, Америка, Австралия, Океания) - 1 день.

Холм - район местоположения метеостанции


Название, широта, долгота, высота метеостанции:
Холм 57.2°ш. 31.2°д. 71 м над ур. моря [Российская Федерация]

Дополнительная информация

В oтличие oт бoльшинства пoгoдных сайтoв мы публикуем пoдрoбную метеoинфoрмацию в детальнoм прoфессиoнальнoм фoрмате.

Характеристики температуры и влажнoсти вoздуха измеряются на высoте 2 м в тени вдали oт зданий и деревьев.
Скoрoсть ветра измеряется на высoте 10 м (на урoвне рoста челoвека скoрoсть ветра ниже в 1.5-2 раза). Если метеoстанция нахoдится в гoрoде или в лесу, тo скoрoсть ветра занижена на 2-4 м/с пo сравнению с oткрытым местoм. Скoрoсть ветра над акватoриями крупных рек и oзёр, а также на вершинах хoлмoв на 2-5 м/с выше, чем в oбычных услoвиях.
Атмoсфернoе давление в разных тoчках местнoсти мoжет значительнo oтличаться oт давления на метеoстанции, в зависимoсти oт услoвий рельефа (при пoдъёме на 10 м давление пoнижается примернo на 1 мм рт.ст.).